User: anonymous   Login
Location: Caltech
(34.1382°N, 118.1253°W)
Time: 21:24:21
(UTC-07:00)
Language:

SL-08 R/B - Orbit

View from above orbital plane
View from above orbital plane
View from above satellite
View from above satellite

Ground track
Ground track

The orbit data is extracted from the following two-line orbital elements,

1 27561U 02054C   15184.86545145  .00000147  00000-0  44128-4 0  9994
2 27561 098.1592 319.8398 0045503 225.1606 134.5891 14.55365492668372
Epoch (UTC): 03 July 2015 20:46:15
Eccentricity: 0.0045503
inclination: 98.1592°
perigee height: 676 km
apogee height: 740 km
right ascension of ascending node: 319.8398°
argument of perigee: 225.1606°
revolutions per day: 14.55365492
mean anomaly at epoch: 134.5891°
orbit number at epoch: 66837

The dashed part of the orbit path shows where the satellite is in the earth's shadow,  

DLR